Hourly Data Report for October 25, 2013

All times are specified in Local Standard Time (LST). Add 1 hour to adjust for Daylight Saving Time where and when it is observed.

PANGNIRTUNG
NUNAVUT

66°08'36.300" N
65°42'40.500" W
22.60 m
2403049
71826
WXP

Download Data

Hourly Data (October 2013)
Hourly Data Report for October 25, 2013
Temp Definition
°C
Dew Point Temp Definition
°C
Rel Hum Definition
%
Wind Dir Definition
10's deg

Wind Spd Definition
km/h
Visibility Definition
km
Stn Press Definition
kPa
Hmdx Definition


Wind Chill Definition


Weather Definition


TIME
00:00 -6.4 -10.5 73 26 2   99.90   -7 LegendNANA
01:00 -6.6 -11.8 66 12 6   99.89   -10 LegendNANA
02:00 -7.6 -12.1 70 14 2   99.90   -9 LegendNANA
03:00 -6.7 -11.4 69 17 2   99.88   -8 LegendNANA
04:00 -7.7 -11.4 75 15 6   99.88   -11 LegendNANA
05:00 -7.4 -11.4 73 15 6   99.89   -11 LegendNANA
06:00 -7.3 -11.1 74 14 6   99.87   -10 LegendNANA
07:00 -6.8 -10.1 77 9 7   99.87   -10 LegendNANA
08:00 -6.0 -9.6 76 10 9   99.85   -10 LegendNANA
09:00 -5.0 -8.4 77 9 6   99.82   -8 LegendNANA
10:00 -5.4 -8.9 76 17 7   99.81   -9 LegendNANA
11:00 -5.6 -8.9 78 18 11   99.79   -10 LegendNANA
12:00 -5.5 -9.0 76 18 9   99.81   -10 LegendNANA
13:00 -5.0 -8.9 74 26 2   99.80   -6 LegendNANA
14:00 -5.3 -8.8 76 33 13   99.78   -10 LegendNANA
15:00 -6.0 -8.9 80 33 13   99.78   -11 LegendNANA
16:00 -5.8 -9.1 77 2 4   99.82   -8 LegendNANA
17:00 -6.5 -9.7 78 16 15   99.82   -12 LegendNANA
18:00 -6.2 -9.3 79 9 9   99.80   -10 LegendNANA
19:00 -5.6 -9.3 75 33 6   99.81   -8 LegendNANA
20:00 -5.8 -9.3 76 12 4   99.81   -8 LegendNANA
21:00 -5.8 -9.2 77 3 4   99.78   -8 LegendNANA
22:00 -5.8 -9.4 76 3 6   99.75   -9 LegendNANA
23:00 -6.1 -9.4 77 7 6   99.73   -9 LegendNANA

Notes on Data Quality.

Legend

  • E = Estimated
  • M = Missing
  • NA = Not Available
  • ‡ = Partner data that is not subject to review by the National Climate Archives
Date modified: